"Pseudo-MPEC" for C1HMKW2

Created 2019 Dec 5 18:07:09 UT using Find_Orb

Click here for an explanation of pseudo-MPECs

 
 Astrometry: 
     C1HMKW2  C2019 12 02.40998 08 22 06.20 +34 09 09.6    ~C2Ab 21.6 GVNEOCPG96
     C1HMKW2  C2019 12 02.41524 08 22 06.91 +34 09 10.4    ~C2Ab 21.4 GVNEOCPG96
     C1HMKW2  C2019 12 02.42048 08 22 07.60 +34 09 10.7    ~C2Ab 21.5 GVNEOCPG96
     C1HMKW2  C2019 12 02.51788 08 22 20.69 +34 09 23.7    ~C2Cq 22.3 GVNEOCPI52
     C1HMKW2  C2019 12 02.51978 08 22 20.95 +34 09 23.5    ~C2Cq 21.3 GVNEOCPI52
     C1HMKW2  C2019 12 02.52168 08 22 21.18 +34 09 24.4    ~C2Cq 21.9 GVNEOCPI52
     C1HMKW2  C2019 12 02.52358 08 22 21.44 +34 09 24.7    ~C2Cq 21.3 GVNEOCPI52
     C1HMKW2  C2019 12 03.38569 08 24 25.71 +34 11 19.3    ~C39q 21.6 GVNEOCPG96
     C1HMKW2  C2019 12 03.38714 08 24 25.90 +34 11 19.4    ~C39q 21.3 GVNEOCPG96
     C1HMKW2  C2019 12 03.39085 08 24 26.40 +34 11 20.2    ~C39q 21.4 GVNEOCPG96
     C1HMKW2  C2019 12 03.39230 08 24 26.61 +34 11 20.3    ~C39q 21.3 GVNEOCPG96
     C1HMKW2  C2019 12 05.18556 08 28 39.21 +34 15 01.6    ~C56q 22.3 VVNEOCP033
     C1HMKW2  C2019 12 05.18912 08 28 39.67 +34 15 02.2    ~C56q 22.4 VVNEOCP033
     C1HMKW2  C2019 12 05.19270 08 28 40.12 +34 15 02.6    ~C56q 22.5 VVNEOCP033
     C1HMKW2 KC2019 12 05s_uri9BAstrometry5pUyRNk$redacted;8Z0Kstf\\P2[L=TfYOH21
     C1HMKW2 KC2019 12 05^BclickZkl6kyd\=hNwhereRyJMe,cp?DB6S.I\FK%'=q=bJ'DhIH21
     C1HMKW2 KC2019 12 05LeULj(kvla;j^+ClT9Zfor_tQ079[r7IuchexplanationPiXY[/H21

Station data:
(033) Karl Schwarzschild Observatory, Tautenburg  (N50.980140 E11.711240)
   Germany. 1.3-m Schmidt.
(G96) Mt. Lemmon Survey  (N32.442754 W110.788720)  US/Arizona.  Observers T.
   A. Pruyne, B. M. Africano, E. J. Christensen, G. A. Farneth, D. C. Fuls,
   A. R. Gibbs, A. D. Grauer, H. Gröller, J. A. Johnson, R. A. Kowalski, S.
   M. Larson, G. J. Leonard, D. Rankin, R. L. Seaman, F. C. Shelly. 1.5-m
   reflector + 10K CCD.
(H21) Astronomical Research Observatory, Westfield  (N39.483057 W87.968270)
   US/Illinois. 0.76-m f/3.0 astrograph + CCD.
(I52) Steward Observatory, Mt. Lemmon Station  (N32.442547 W110.788920)
   US/Arizona.  Observers T. A. Pruyne, B. M. Africano, E. J. Christensen, G.
   A. Farneth, D. C. Fuls, A. R. Gibbs, A. D. Grauer, H. Gröller, J. A.
   Johnson, R. A. Kowalski, S. M. Larson, G. J. Leonard, D. Rankin, R. L.
   Seaman, F. C. Shelly. 1.0-m reflector + CCD.

Orbital elements:  C1HMKW2
   Perihelion 2020 Feb 13.057416 +/- 1.97 TT =  1:22:40 (JD 2458892.557416)
Epoch 2019 Dec  5.0 TT = JDT 2458822.5   Earth MOID: 0.1753   AutoNEOCP
M 323.16750508 +/- 2.0              (J2000 ecliptic)
n   0.52574726 +/- 0.0158           Peri.  157.68592 +/- 2.9
a   1.52037726 +/- 0.0304           Node   345.16134 +/- 1.1
e   0.2365877 +/- 0.00889           Incl.    4.57593 +/- 0.06
P   1.87/684.73d           H 21.8   G  0.15   U 10.0  
q 1.16067457 +/- 0.0103    Q 1.88007996 +/- 0.0525
From 17 observations 2019 Dec. 2-5; mean residual 0".27
Residuals in arcseconds: 
191202 G96  .02-  .24+    191202 I52  .04-  .27+    191205 033  .27+  .35-    
191202 G96  .02+  .23+    191203 G96  .11-  .07+    191205 033  .10-  .31-    
191202 G96  .16-  .27-    191203 G96  .16-  .06-    191205 H21  .10-  .23+    
191202 I52  .17+  .10-    191203 G96  .12-  .15+    191205 H21  .03-  .20+    
191202 I52  .22+  .51-    191203 G96  .08+  .02+    191205 H21  .41-  .70+    
191202 I52  .10-  .18+    191205 033  .49+  .59-    

Ephemerides (geocentric):
Date (UTC) HH   RA              Dec         delta   r     elong  mag " sig PA
---- -- -- --  -------------   -----------  ------ ------ -----  --- ---- ---
2019 12 05 18  08 29 58.820   +34 16 18.34  .38981 1.2715 130.0 21.8 .303  57
2019 12 05 19  08 30 04.651   +34 16 23.38  .38957 1.2714 130.0 21.8 .321  57
2019 12 05 20  08 30 10.481   +34 16 28.41  .38933 1.2713 130.0 21.8 .339  58
2019 12 05 21  08 30 16.309   +34 16 33.43  .38909 1.2712 130.1 21.8 .358  59
2019 12 05 22  08 30 22.135   +34 16 38.44  .38886 1.2711 130.1 21.8 .377  59
2019 12 05 23  08 30 27.960   +34 16 43.45  .38862 1.2709 130.1 21.8 .397  60
2019 12 06 00  08 30 33.782   +34 16 48.45  .38838 1.2708 130.1 21.8 .417  60
2019 12 06 01  08 30 39.603   +34 16 53.44  .38814 1.2707 130.1 21.8 .437  61
2019 12 06 02  08 30 45.422   +34 16 58.42  .38790 1.2706 130.2 21.8 .458  61
2019 12 06 03  08 30 51.239   +34 17 03.39  .38766 1.2705 130.2 21.8 .479  62
2019 12 06 04  08 30 57.054   +34 17 08.35  .38742 1.2703 130.2 21.8 .501  62
2019 12 06 05  08 31 02.868   +34 17 13.31  .38719 1.2702 130.2 21.8 .523  62
2019 12 06 06  08 31 08.679   +34 17 18.26  .38695 1.2701 130.2 21.8 .546  63
2019 12 06 07  08 31 14.489   +34 17 23.20  .38671 1.2700 130.3 21.8 .569  63
2019 12 06 08  08 31 20.297   +34 17 28.13  .38647 1.2699 130.3 21.8 .593  63
2019 12 06 09  08 31 26.103   +34 17 33.05  .38623 1.2698 130.3 21.8 .617  64
2019 12 06 10  08 31 31.908   +34 17 37.97  .38600 1.2696 130.3 21.8 .641  64
2019 12 06 11  08 31 37.710   +34 17 42.87  .38576 1.2695 130.3 21.8 .666  64
2019 12 06 12  08 31 43.511   +34 17 47.77  .38552 1.2694 130.4 21.8 .691  64
2019 12 06 13  08 31 49.310   +34 17 52.66  .38529 1.2693 130.4 21.8 .717  65
2019 12 06 14  08 31 55.107   +34 17 57.54  .38505 1.2692 130.4 21.8 .743  65
2019 12 06 15  08 32 00.902   +34 18 02.42  .38481 1.2691 130.4 21.8 .770  65
2019 12 06 16  08 32 06.695   +34 18 07.28  .38458 1.2689 130.4 21.8 .797  65
2019 12 06 17  08 32 12.486   +34 18 12.14  .38434 1.2688 130.5 21.8 .825  66
2019 12 06 18  08 32 18.276   +34 18 16.99  .38410 1.2687 130.5 21.8 .853  66
2019 12 06 19  08 32 24.064   +34 18 21.83  .38387 1.2686 130.5 21.8 .881  66
2019 12 06 20  08 32 29.849   +34 18 26.66  .38363 1.2685 130.5 21.8 .910  66
2019 12 06 21  08 32 35.633   +34 18 31.48  .38339 1.2683 130.5 21.8 .939  66
2019 12 06 22  08 32 41.415   +34 18 36.30  .38316 1.2682 130.6 21.8 .969  67
2019 12 06 23  08 32 47.196   +34 18 41.10  .38292 1.2681 130.6 21.8 1.00  67
2019 12 07 00  08 32 52.974   +34 18 45.90  .38269 1.2680 130.6 21.7 1.03  67
2019 12 07 01  08 32 58.750   +34 18 50.69  .38245 1.2679 130.6 21.7 1.06  67
2019 12 07 02  08 33 04.525   +34 18 55.47  .38222 1.2678 130.6 21.7 1.09  67
2019 12 07 03  08 33 10.298   +34 19 00.25  .38198 1.2676 130.7 21.7 1.13  67
2019 12 07 04  08 33 16.068   +34 19 05.01  .38175 1.2675 130.7 21.7 1.16  67
2019 12 07 05  08 33 21.837   +34 19 09.77  .38151 1.2674 130.7 21.7 1.19  68
2019 12 07 06  08 33 27.604   +34 19 14.51  .38128 1.2673 130.7 21.7 1.22  68
2019 12 07 07  08 33 33.369   +34 19 19.25  .38104 1.2672 130.7 21.7 1.26  68
2019 12 07 08  08 33 39.133   +34 19 23.98  .38081 1.2671 130.8 21.7 1.29  68
2019 12 07 09  08 33 44.894   +34 19 28.70  .38057 1.2669 130.8 21.7 1.33  68
2019 12 07 10  08 33 50.653   +34 19 33.42  .38034 1.2668 130.8 21.7 1.36  68
2019 12 07 11  08 33 56.411   +34 19 38.12  .38011 1.2667 130.8 21.7 1.40  68
2019 12 07 12  08 34 02.166   +34 19 42.82  .37987 1.2666 130.8 21.7 1.44  69
2019 12 07 13  08 34 07.920   +34 19 47.51  .37964 1.2665 130.9 21.7 1.47  69
2019 12 07 14  08 34 13.672   +34 19 52.19  .37940 1.2664 130.9 21.7 1.51  69
2019 12 07 15  08 34 19.421   +34 19 56.86  .37917 1.2662 130.9 21.7 1.55  69
2019 12 07 16  08 34 25.169   +34 20 01.52  .37894 1.2661 130.9 21.7 1.59  69
2019 12 07 17  08 34 30.915   +34 20 06.17  .37870 1.2660 130.9 21.7 1.62  69